Snyder, TX

4:42 PM CDT on September 25, 2017 (GMT -0500)
Winston

Weather History for KSNK - September, 2013

Change the Weather History Date:

Sunday, September 29, 2013

  Actual Average Record
Temperature  
Mean Temperature 64 °F -  
Max Temperature 77 °F 82 °F 100 °F (1953)
Min Temperature 51 °F 55 °F 35 °F (1916)
Degree Days  
Heating Degree Days 1    
Growing Degree Days 14 (Base 50)    
Moisture  
Dew Point 46 °F    
Average Humidity 55    
Maximum Humidity 88    
Minimum Humidity 24    
Precipitation  
Precipitation 0.00 in - - ()
Sea Level Pressure  
Sea Level Pressure 30.10 in    
Wind  
Wind Speed 5 mph (NNW)    
Max Wind Speed 10 mph    
Max Gust Speed -    
Visibility 10 miles    
Events      
Averages and records for this station are not official NWS values.
T = Trace of Precipitation, MM = Missing Value Source: NWS Daily Summary

Daily Weather History Graph

Daily Weather History Graph

Search for Another Location

Airport or City:

Trip Planner

Search our weather history database for the weather conditions in past years. The results will help you decide how hot, cold, wet, or windy it might be!

Date:

Astronomy

Sep. 29, 2013 Rise Set
Actual Time 7:36 AM CDT 7:30 PM CDT
Civil Twilight 7:12 AM CDT 7:55 PM CDT
Nautical Twilight 6:43 AM CDT 8:23 PM CDT
Astronomical Twilight 6:14 AM CDT 8:52 PM CDT
Moon 2:34 AM CDT (9/29) 4:14 PM CDT (9/29)
Length of Visible Light 12h 43m
Length of Day
11h 53m
Waning Crescent, 27% of the Moon is Illuminated
Sep 29
Waning Crescent
Oct 4
New
Oct 11
First Quarter
Oct 18
Full
Oct 26
Last Quarter

Hourly Weather History & Observations

Time (CDT) Temp. Dew Point Humidity Pressure Visibility Wind Dir Wind Speed Gust Speed Precip Events Conditions
12:15 AM 58.1 °F 52.5 °F 82% 30.19 in 10.0 mi North 5.8 mph - N/A   Clear
12:35 AM 57.0 °F 51.8 °F 83% 30.19 in 10.0 mi North 6.9 mph - N/A   Clear
12:55 AM 56.8 °F 51.4 °F 82% 30.19 in 10.0 mi North 6.9 mph - N/A   Clear
1:15 AM 56.8 °F 51.1 °F 81% 30.18 in 10.0 mi North 6.9 mph - N/A   Clear
1:35 AM 56.8 °F 50.9 °F 80% 30.18 in 10.0 mi NNW 4.6 mph - N/A   Clear
1:55 AM 56.8 °F 51.3 °F 82% 30.18 in 10.0 mi North 4.6 mph - N/A   Clear
2:15 AM 56.8 °F 49.8 °F 77% 30.17 in 10.0 mi North 6.9 mph - N/A   Clear
2:35 AM 56.8 °F 50.2 °F 78% 30.17 in 10.0 mi North 4.6 mph - N/A   Clear
2:55 AM 56.5 °F 50.5 °F 80% 30.17 in 10.0 mi North 4.6 mph - N/A   Clear
3:15 AM 56.7 °F 50.0 °F 78% 30.17 in 10.0 mi North 3.5 mph - N/A   Clear
3:35 AM 55.2 °F 49.5 °F 81% 30.16 in 10.0 mi North 3.5 mph - N/A   Clear
3:55 AM 54.5 °F 49.3 °F 83% 30.16 in 10.0 mi North 4.6 mph - N/A   Clear
4:15 AM 54.5 °F 48.7 °F 81% 30.16 in 10.0 mi North 5.8 mph - N/A   Clear
4:35 AM 54.5 °F 48.4 °F 80% 30.16 in 10.0 mi North 4.6 mph - N/A   Clear
4:55 AM 55.8 °F 48.7 °F 77% 30.15 in 10.0 mi North 4.6 mph - N/A   Clear
5:15 AM 55.6 °F 48.4 °F 77% 30.15 in 10.0 mi North 5.8 mph - N/A   Clear
5:35 AM 54.5 °F 48.2 °F 79% 30.15 in 10.0 mi North 5.8 mph - N/A   Clear
5:55 AM 54.5 °F 47.8 °F 78% 30.16 in 10.0 mi North 4.6 mph - N/A   Clear
6:15 AM 54.5 °F 48.0 °F 79% 30.16 in 10.0 mi North 5.8 mph - N/A   Clear
6:35 AM 54.5 °F 48.7 °F 81% 30.16 in 10.0 mi North 4.6 mph - N/A   Clear
6:55 AM 53.4 °F 48.9 °F 85% 30.16 in 10.0 mi NNW 8.1 mph - N/A   Clear
7:15 AM 51.8 °F 48.2 °F 88% 30.16 in 10.0 mi NNW 5.8 mph - N/A   Clear
7:35 AM 52.9 °F 48.6 °F 85% 30.16 in 10.0 mi NNW 4.6 mph - N/A   Clear
7:55 AM 52.7 °F 48.2 °F 85% 30.16 in 10.0 mi NNW 3.5 mph - N/A   Clear
8:15 AM 54.3 °F 49.1 °F 83% 30.17 in 10.0 mi Calm Calm - N/A   Clear
8:35 AM 54.7 °F 48.7 °F 80% 30.17 in 10.0 mi NNW 3.5 mph - N/A   Clear
8:55 AM 56.3 °F 49.5 °F 78% 30.17 in 10.0 mi NNW 3.5 mph - N/A   Clear
9:15 AM 57.9 °F 49.8 °F 74% 30.18 in 7.0 mi Calm Calm - N/A   Clear
9:35 AM 60.4 °F 49.8 °F 68% 30.18 in 10.0 mi Calm Calm - N/A   Clear
9:55 AM 62.6 °F 47.8 °F 58% 30.18 in 10.0 mi ENE 3.5 mph - N/A   Clear
10:15 AM 64.0 °F 46.2 °F 52% 30.18 in 10.0 mi East 4.6 mph - N/A   Clear
10:35 AM 65.7 °F 47.5 °F 52% 30.18 in 10.0 mi Calm Calm - N/A   Clear
10:55 AM 67.1 °F 47.8 °F 50% 30.18 in 10.0 mi North 3.5 mph - N/A   Clear
11:15 AM 68.5 °F 46.8 °F 46% 30.18 in 10.0 mi Calm Calm - N/A   Clear
11:35 AM 69.4 °F 44.6 °F 41% 30.18 in 10.0 mi Calm Calm - N/A   Clear
11:55 AM 69.4 °F 43.5 °F 39% 30.17 in 10.0 mi Calm Calm - N/A   Clear
12:15 PM 69.4 °F 43.2 °F 39% 30.17 in 10.0 mi North 4.6 mph - N/A   Clear
12:35 PM 69.6 °F 42.6 °F 38% 30.16 in 10.0 mi Calm Calm - N/A   Clear
12:55 PM 70.7 °F 42.3 °F 36% 30.14 in 10.0 mi North 3.5 mph - N/A   Clear
1:15 PM 72.3 °F 43.2 °F 35% 30.13 in 10.0 mi NNW 5.8 mph - N/A   Clear
1:35 PM 73.6 °F 43.2 °F 34% 30.12 in 10.0 mi Calm Calm - N/A   Clear
1:55 PM 73.9 °F 42.3 °F 32% 30.10 in 10.0 mi Calm Calm - N/A   Clear
2:15 PM 74.5 °F 42.4 °F 32% 30.09 in 10.0 mi West 4.6 mph - N/A   Clear
2:35 PM 74.5 °F 41.2 °F 30% 30.07 in 10.0 mi Calm Calm - N/A   Clear
2:55 PM 75.4 °F 40.6 °F 29% 30.06 in 10.0 mi WNW 6.9 mph - N/A   Clear
3:15 PM 76.8 °F 38.7 °F 25% 30.05 in 10.0 mi West 6.9 mph - N/A   Clear
3:35 PM 76.8 °F 38.3 °F 25% 30.05 in 10.0 mi Calm Calm - N/A   Clear
3:55 PM 76.8 °F 39.2 °F 26% 30.04 in 10.0 mi NW 8.1 mph - N/A   Clear
4:15 PM 77.2 °F 38.3 °F 25% 30.03 in 10.0 mi WNW 5.8 mph - N/A   Clear
4:35 PM 77.0 °F 37.6 °F 24% 30.03 in 10.0 mi West 5.8 mph - N/A   Clear
4:55 PM 77.0 °F 38.7 °F 25% 30.02 in 10.0 mi SW 4.6 mph - N/A   Clear
5:15 PM 77.5 °F 40.3 °F 26% 30.02 in 10.0 mi Calm Calm - N/A   Clear
5:35 PM 77.0 °F 39.7 °F 26% 30.01 in 10.0 mi West 3.5 mph - N/A   Clear
5:55 PM 77.0 °F 40.1 °F 27% 30.01 in 10.0 mi WNW 3.5 mph - N/A   Clear
6:15 PM 77.0 °F 40.1 °F 27% 30.01 in 10.0 mi Calm Calm - N/A   Clear
6:35 PM 77.0 °F 40.8 °F 27% 30.01 in 10.0 mi WSW 5.8 mph - N/A   Clear
6:55 PM 77.0 °F 41.4 °F 28% 30.00 in 10.0 mi SW 4.6 mph - N/A   Clear
7:15 PM 76.6 °F 43.2 °F 30% 30.00 in 10.0 mi SW 3.5 mph - N/A   Clear
7:35 PM 74.7 °F 43.2 °F 32% 30.00 in 10.0 mi SSW 4.6 mph - N/A   Clear
7:55 PM 74.5 °F 44.1 °F 34% 30.00 in 10.0 mi SSW 4.6 mph - N/A   Clear
8:15 PM 73.0 °F 44.2 °F 36% 30.00 in 10.0 mi South 3.5 mph - N/A   Clear
8:35 PM 72.0 °F 42.3 °F 34% 30.00 in 10.0 mi South 4.6 mph - N/A   Clear
8:55 PM 71.4 °F 42.4 °F 35% 30.00 in 10.0 mi SSE 8.1 mph - N/A   Clear
9:15 PM 69.4 °F 48.4 °F 47% 30.00 in 10.0 mi SE 8.1 mph - N/A   Clear
9:35 PM 69.4 °F 49.5 °F 49% 30.00 in 10.0 mi SE 9.2 mph - N/A   Clear
9:55 PM 69.4 °F 49.6 °F 49% 30.00 in 10.0 mi SE 9.2 mph - N/A   Clear
10:15 PM 68.0 °F 48.9 °F 50% 30.00 in 10.0 mi SE 10.4 mph - N/A   Clear
10:35 PM 66.2 °F 48.7 °F 53% 30.00 in 10.0 mi SE 9.2 mph - N/A   Clear
10:55 PM 64.6 °F 48.6 °F 56% 30.00 in 10.0 mi SSE 9.2 mph - N/A   Clear
11:15 PM 63.5 °F 48.4 °F 58% 30.00 in 10.0 mi SSE 9.2 mph - N/A   Clear
11:35 PM 62.6 °F 48.2 °F 59% 30.00 in 10.0 mi SSE 6.9 mph - N/A   Clear
11:55 PM 61.9 °F 48.4 °F 61% 30.00 in 10.0 mi South 6.9 mph - N/A   Clear